When you browse on this site, cookies collect data to enhance your experience and personalize the content and advertising you see.
Visit our Privacy Policy to learn more. By continuing to use the site, you agree to this use of cookies and data.
  • In Hungary
  • List of Countries
  • For 7 days
  • Water Temperature
  • Satellite Maps
  • Weather Map
  • News
  • Weather Widgets
  • user-avatar
    Login

    Hourly Weather Tlyaumbetovo

    Today, 24 January, Thursday

    Time Temperature Precipitation Wind Pressure Humidity
    00:00 -24°C° 0 mm 1 mps 743 mmHg 99%
    01:00 -25°C° 0 mm 1 mps 744 mmHg 99%
    02:00 -25°C° 0 mm 0 mps 744 mmHg 99%
    03:00 -25°C° 0 mm 0 mps 745 mmHg 99%
    04:00 -26°C° 0 mm 0 mps 745 mmHg 99%
    05:00 -26°C° 0 mm 0 mps 745 mmHg 99%
    06:00 -25°C° 0 mm 0 mps 746 mmHg 99%
    07:00 -25°C° 0 mm 0 mps 746 mmHg 99%
    08:00 -24°C° 0 mm 1 mps 746 mmHg 98%
    09:00 -23°C° 0 mm 1 mps 747 mmHg 98%
    10:00 -22°C° 0 mm 1 mps 747 mmHg 96%
    11:00 -21°C° 0 mm 1 mps 747 mmHg 95%
    12:00 -19°C° 0 mm 1 mps 747 mmHg 94%
    13:00 -18°C° 0 mm 1 mps 748 mmHg 93%
    14:00 -18°C° 0 mm 1 mps 747 mmHg 93%
    15:00 -19°C° 0 mm 1 mps 747 mmHg 94%
    16:00 -21°C° 0 mm 2 mps 747 mmHg 95%
    17:00 -21°C° 0 mm 2 mps 747 mmHg 94%
    18:00 -20°C° 0 mm 2 mps 746 mmHg 93%
    19:00 -20°C° 0 mm 2 mps 746 mmHg 92%
    20:00 -21°C° 0 mm 3 mps 746 mmHg 90%
    21:00 -19°C° 0 mm 3 mps 745 mmHg 88%
    22:00 -17°C° 0 mm 3 mps 745 mmHg 86%
    23:00 -19°C° 0.3 mm 5 mps 744 mmHg 88%

    Tomorrow, 25 January, Friday

    Time Temperature Precipitation Wind Pressure Humidity
    00:00 -18°C° 0.3 mm 6 mps 743 mmHg 90%
    01:00 -18°C° 0.3 mm 7 mps 742 mmHg 92%
    02:00 -17°C° 0.6 mm 8 mps 742 mmHg 90%
    03:00 -17°C° 0.6 mm 9 mps 741 mmHg 89%
    04:00 -17°C° 0.6 mm 9 mps 740 mmHg 88%
    05:00 -17°C° 1.1 mm 9 mps 739 mmHg 90%
    06:00 -17°C° 1.1 mm 9 mps 738 mmHg 92%
    07:00 -19°C° 1.1 mm 10 mps 737 mmHg 94%
    08:00 -17°C° 0.9 mm 9 mps 737 mmHg 94%
    09:00 -17°C° 0.9 mm 8 mps 736 mmHg 94%
    10:00 -17°C° 0.9 mm 8 mps 736 mmHg 94%
    11:00 -15°C° 0.5 mm 7 mps 735 mmHg 94%
    12:00 -14°C° 0.5 mm 7 mps 735 mmHg 94%
    13:00 -14°C° 0.5 mm 6 mps 734 mmHg 94%
    14:00 -11°C° 0.4 mm 6 mps 734 mmHg 93%
    15:00 -10°C° 0.4 mm 6 mps 734 mmHg 93%
    16:00 -9°C° 0.4 mm 6 mps 734 mmHg 92%
    17:00 -12°C° 0 mm 5 mps 735 mmHg 93%
    18:00 -14°C° 0 mm 4 mps 735 mmHg 93%
    19:00 -16°C° 0 mm 3 mps 736 mmHg 94%
    20:00 -18°C° 0 mm 3 mps 737 mmHg 95%
    21:00 -19°C° 0 mm 3 mps 738 mmHg 96%
    22:00 -22°C° 0 mm 3 mps 739 mmHg 97%
    23:00 -23°C° 0 mm 3 mps 740 mmHg 98%

    Day after tomorrow, 26 January, Saturday

    Time Temperature Precipitation Wind Pressure Humidity
    00:00 -23°C° 0 mm 2 mps 740 mmHg 98%
    01:00 -25°C° 0 mm 2 mps 741 mmHg 98%
    02:00 -25°C° 0 mm 2 mps 741 mmHg 98%
    03:00 -26°C° 0 mm 2 mps 742 mmHg 98%
    04:00 -27°C° 0 mm 2 mps 743 mmHg 98%
    05:00 -24°C° 0 mm 1 mps 743 mmHg 98%
    06:00 -25°C° 0 mm 1 mps 743 mmHg 98%
    07:00 -25°C° 0 mm 1 mps 744 mmHg 98%
    08:00 -24°C° 0 mm 1 mps 744 mmHg 97%
    09:00 -23°C° 0 mm 1 mps 745 mmHg 96%
    10:00 -22°C° 0 mm 1 mps 746 mmHg 95%
    11:00 -20°C° 0 mm 1 mps 746 mmHg 93%
    12:00 -19°C° 0 mm 1 mps 746 mmHg 91%
    13:00 -17°C° 0 mm 1 mps 746 mmHg 89%
    14:00 -18°C° 0 mm 1 mps 746 mmHg 89%
    15:00 -18°C° 0 mm 1 mps 746 mmHg 90%
    16:00 -20°C° 0 mm 2 mps 746 mmHg 91%
    17:00 -21°C° 0 mm 2 mps 747 mmHg 90%
    18:00 -21°C° 0 mm 2 mps 747 mmHg 89%
    19:00 -23°C° 0 mm 2 mps 747 mmHg 88%
    20:00 -20°C° 0 mm 1 mps 747 mmHg 85%
    21:00 -20°C° 0 mm 1 mps 747 mmHg 83%
    22:00 -19°C° 0 mm 1 mps 747 mmHg 81%
    23:00 -19°C° 0 mm 1 mps 747 mmHg 79%

    27 January, Sunday

    Time Temperature Precipitation Wind Pressure Humidity
    00:00 -19°C° 0 mm 1 mps 747 mmHg 77%
    01:00 -21°C° 0 mm 2 mps 747 mmHg 75%
    02:00 -21°C° 0 mm 2 mps 747 mmHg 75%
    03:00 -21°C° 0 mm 2 mps 747 mmHg 75%
    04:00 -21°C° 0 mm 2 mps 747 mmHg 74%
    05:00 -21°C° 0 mm 2 mps 747 mmHg 75%
    06:00 -23°C° 0 mm 3 mps 747 mmHg 76%
    07:00 -23°C° 0 mm 3 mps 747 mmHg 76%
    08:00 -22°C° 0 mm 3 mps 747 mmHg 76%
    09:00 -22°C° 0 mm 4 mps 747 mmHg 75%
    10:00 -20°C° 0 mm 4 mps 747 mmHg 74%
    11:00 -20°C° 0 mm 5 mps 747 mmHg 73%
    12:00 -18°C° 0 mm 6 mps 747 mmHg 72%
    13:00 -17°C° 0 mm 6 mps 746 mmHg 71%
    14:00 -17°C° 0 mm 6 mps 746 mmHg 71%
    15:00 -18°C° 0 mm 6 mps 746 mmHg 71%
    16:00 -18°C° 0 mm 6 mps 745 mmHg 71%
    17:00 -18°C° 0 mm 6 mps 745 mmHg 71%
    18:00 -20°C° 0 mm 6 mps 745 mmHg 70%
    19:00 -20°C° 0 mm 6 mps 745 mmHg 70%
    20:00 -20°C° 0 mm 7 mps 745 mmHg 69%
    21:00 -20°C° 0 mm 7 mps 744 mmHg 68%
    22:00 -20°C° 0 mm 7 mps 744 mmHg 67%
    23:00 -20°C° 0 mm 7 mps 744 mmHg 66%

    28 January, Monday

    Time Temperature Precipitation Wind Pressure Humidity
    00:00 -20°C° 0 mm 7 mps 744 mmHg 66%
    01:00 -20°C° 0 mm 7 mps 743 mmHg 66%
    02:00 -20°C° 0 mm 7 mps 743 mmHg 66%
    03:00 -20°C° 0 mm 7 mps 742 mmHg 66%
    04:00 -20°C° 0 mm 7 mps 742 mmHg 67%
    05:00 -20°C° 0 mm 7 mps 741 mmHg 67%
    06:00 -19°C° 0 mm 7 mps 741 mmHg 68%
    07:00 -19°C° 0 mm 7 mps 740 mmHg 69%
    08:00 -18°C° 0 mm 8 mps 740 mmHg 70%
    09:00 -18°C° 0 mm 8 mps 740 mmHg 71%
    10:00 -17°C° 0 mm 8 mps 740 mmHg 72%
    11:00 -16°C° 0 mm 8 mps 739 mmHg 74%
    12:00 -16°C° 0 mm 8 mps 739 mmHg 75%
    13:00 -15°C° 0 mm 8 mps 738 mmHg 77%
    14:00 -15°C° 0.1 mm 8 mps 738 mmHg 77%
    15:00 -15°C° 0.1 mm 8 mps 737 mmHg 77%
    16:00 -15°C° 0.1 mm 8 mps 737 mmHg 78%
    17:00 -15°C° 0 mm 7 mps 737 mmHg 79%
    18:00 -15°C° 0 mm 7 mps 737 mmHg 80%
    19:00 -15°C° 0 mm 7 mps 736 mmHg 82%
    20:00 -16°C° 0.3 mm 6 mps 736 mmHg 84%
    21:00 -16°C° 0.3 mm 6 mps 736 mmHg 87%
    22:00 -16°C° 0.3 mm 6 mps 736 mmHg 89%
    23:00 -16°C° 0.2 mm 6 mps 736 mmHg 89%

    29 January, Tuesday

    Time Temperature Precipitation Wind Pressure Humidity
    00:00 -15°C° 0.2 mm 5 mps 736 mmHg 90%
    01:00 -17°C° 0.2 mm 5 mps 736 mmHg 90%
    02:00 -15°C° 0.1 mm 5 mps 736 mmHg 90%
    03:00 -14°C° 0.1 mm 4 mps 736 mmHg 91%
    04:00 -12°C° 0.1 mm 3 mps 735 mmHg 91%
    05:00 -12°C° 0.1 mm 3 mps 735 mmHg 91%
    06:00 -12°C° 0.1 mm 3 mps 735 mmHg 91%
    07:00 -12°C° 0.1 mm 3 mps 735 mmHg 91%
    08:00 -10°C° 0.1 mm 3 mps 735 mmHg 91%
    09:00 -10°C° 0.1 mm 3 mps 735 mmHg 90%
    10:00 -9°C° 0.1 mm 3 mps 736 mmHg 90%
    11:00 -9°C° 0.2 mm 3 mps 736 mmHg 90%
    12:00 -10°C° 0.2 mm 3 mps 735 mmHg 91%
    13:00 -10°C° 0.2 mm 3 mps 735 mmHg 91%
    14:00 -10°C° 0.1 mm 3 mps 736 mmHg 90%
    15:00 -10°C° 0.1 mm 3 mps 736 mmHg 90%
    16:00 -10°C° 0.1 mm 3 mps 736 mmHg 89%
    17:00 -10°C° 0 mm 2 mps 736 mmHg 90%
    18:00 -12°C° 0 mm 2 mps 737 mmHg 90%
    19:00 -10°C° 0 mm 1 mps 737 mmHg 90%
    20:00 -11°C° 0 mm 1 mps 737 mmHg 90%
    21:00 -12°C° 0 mm 1 mps 737 mmHg 90%
    22:00 -13°C° 0 mm 1 mps 737 mmHg 90%
    23:00 -13°C° 0 mm 1 mps 738 mmHg 90%
    Show more